QPF
0.03 0.05 0.10 0.16 0.16 0.13 0.11 0.07 0.04 0.04 0.03 0.02 0.02 0.02 0.02 0.03 0.05 0.08 0.10 0.07 0.03 0.03 0.04 0.05 0.05 0.05 0.06 0.09 0.09 0.10 0.10 0.08 0.08 0.10 0.11 0.14 0.09 0.06 0.06 0.04 0.05 0.04 0.04 0.05 0.04 0.03 0.03 0.04 0.03
0.06 0.08 0.13 0.17 0.14 0.08 0.07 0.06 0.04 0.04 0.03 0.02 0.01 0.01 0.01 0.02 0.04 0.08 0.08 0.06 0.02 0.02 0.01 0.02 0.03 0.03 0.03 0.04 0.05 0.05 0.05 0.05 0.06 0.07 0.11 0.19 0.19 0.12 0.08 0.06 0.06 0.06 0.06 0.05 0.04 0.04 0.04 0.03 0.02
0.07 0.09 0.14 0.15 0.11 0.10 0.10 0.07 0.04 0.03 0.02 0.01 0.00 0.01 0.02 0.04 0.05 0.09 0.08 0.04 0.01 0.01 0.01 0.02 0.03 0.02 0.02 0.03 0.03 0.04 0.04 0.04 0.04 0.05 0.05 0.08 0.11 0.16 0.14 0.09 0.04 0.04 0.05 0.05 0.03 0.03 0.03 0.03 0.02
0.14 0.15 0.17 0.13 0.07 0.06 0.07 0.05 0.02 0.01 0.01 0.00 0.00 0.01 0.04 0.06 0.05 0.08 0.08 0.03 0.01 0.01 0.03 0.02 0.02 0.03 0.02 0.02 0.02 0.03 0.03 0.03 0.04 0.03 0.02 0.03 0.04 0.06 0.07 0.09 0.05 0.04 0.04 0.04 0.03 0.02 0.02 0.02 0.02
0.14 0.15 0.14 0.07 0.05 0.06 0.04 0.02 0.00 0.01 0.01 0.00 0.00 0.01 0.05 0.08 0.07 0.06 0.07 0.03 0.01 0.03 0.07 0.04 0.03 0.02 0.02 0.02 0.02 0.02 0.02 0.02 0.03 0.03 0.01 0.03 0.04 0.04 0.04 0.05 0.05 0.04 0.05 0.05 0.04 0.03 0.02 0.02 0.02
0.10 0.09 0.07 0.05 0.05 0.05 0.02 0.01 0.01 0.01 0.01 0.01 0.00 0.01 0.04 0.08 0.07 0.05 0.04 0.03 0.02 0.03 0.09 0.11 0.06 0.03 0.02 0.02 0.02 0.02 0.02 0.02 0.03 0.02 0.01 0.02 0.04 0.04 0.03 0.04 0.04 0.04 0.04 0.05 0.05 0.04 0.03 0.02 0.02
0.08 0.07 0.05 0.05 0.06 0.05 0.04 0.02 0.01 0.01 0.01 0.01 0.01 0.01 0.04 0.07 0.06 0.04 0.03 0.06 0.04 0.03 0.06 0.11 0.08 0.05 0.03 0.03 0.02 0.02 0.02 0.03 0.04 0.04 0.03 0.04 0.05 0.05 0.03 0.03 0.04 0.03 0.04 0.05 0.06 0.05 0.03 0.02 0.02
0.03 0.04 0.04 0.04 0.04 0.05 0.05 0.02 0.00 0.01 0.01 0.01 0.00 0.01 0.02 0.04 0.03 0.04 0.04 0.05 0.05 0.04 0.04 0.06 0.08 0.06 0.03 0.03 0.03 0.03 0.03 0.04 0.05 0.05 0.04 0.06 0.06 0.05 0.04 0.04 0.05 0.05 0.06 0.06 0.05 0.04 0.02 0.01 0.02
0.02 0.03 0.04 0.04 0.03 0.04 0.03 0.01 0.00 0.00 0.01 0.00 0.00 0.00 0.01 0.01 0.02 0.03 0.04 0.05 0.05 0.07 0.10 0.13 0.10 0.05 0.05 0.05 0.06 0.07 0.08 0.06 0.07 0.06 0.06 0.06 0.06 0.06 0.05 0.09 0.13 0.13 0.12 0.08 0.05 0.04 0.02 0.02 0.02
0.01 0.01 0.01 0.01 0.01 0.02 0.01 0.01 0.00 0.00 0.00 0.00 0.00 0.01 0.01 0.01 0.02 0.03 0.03 0.04 0.06 0.10 0.14 0.14 0.09 0.05 0.04 0.04 0.06 0.06 0.07 0.07 0.06 0.05 0.05 0.04 0.05 0.05 0.06 0.12 0.18 0.19 0.18 0.10 0.06 0.04 0.03 0.05 0.05
0.01 0.01 0.01 0.01 0.01 0.00 0.00 0.00 0.00 0.01 0.01 0.00 0.00 0.00 0.01 0.01 0.02 0.03 0.03 0.05 0.06 0.10 0.13 0.12 0.08 0.05 0.03 0.04 0.04 0.05 0.06 0.07 0.06 0.05 0.04 0.04 0.04 0.04 0.05 0.10 0.16 0.18 0.15 0.09 0.06 0.04 0.05 0.06 0.09
0.01 0.01 0.01 0.01 0.01 0.01 0.00 0.00 0.01 0.02 0.01 0.01 0.01 0.01 0.01 0.02 0.04 0.04 0.04 0.06 0.06 0.08 0.10 0.09 0.07 0.05 0.03 0.03 0.04 0.05 0.05 0.05 0.05 0.05 0.04 0.04 0.04 0.03 0.04 0.06 0.10 0.09 0.08 0.07 0.06 0.06 0.07 0.07 0.09
0.00 0.01 0.01 0.02 0.01 0.01 0.00 0.00 0.01 0.01 0.01 0.00 0.01 0.01 0.01 0.02 0.04 0.04 0.05 0.04 0.05 0.06 0.07 0.05 0.04 0.03 0.04 0.04 0.04 0.04 0.04 0.04 0.05 0.07 0.07 0.07 0.06 0.04 0.04 0.04 0.05 0.05 0.06 0.06 0.07 0.06 0.06 0.07 0.07
0.01 0.01 0.01 0.02 0.02 0.01 0.00 0.00 0.01 0.01 0.01 0.00 0.01 0.01 0.01 0.01 0.03 0.04 0.04 0.03 0.04 0.05 0.04 0.03 0.01 0.01 0.03 0.04 0.05 0.06 0.06 0.05 0.08 0.07 0.06 0.06 0.05 0.04 0.03 0.03 0.04 0.04 0.04 0.04 0.04 0.04 0.07 0.08 0.09
0.01 0.01 0.02 0.02 0.02 0.02 0.01 0.02 0.01 0.01 0.00 0.01 0.01 0.01 0.01 0.01 0.02 0.04 0.03 0.02 0.02 0.02 0.02 0.02 0.02 0.02 0.02 0.02 0.02 0.04 0.05 0.06 0.06 0.06 0.05 0.04 0.04 0.02 0.02 0.03 0.02 0.03 0.04 0.04 0.04 0.06 0.08 0.07 0.11
0.01 0.01 0.02 0.01 0.02 0.02 0.01 0.01 0.01 0.00 0.00 0.01 0.02 0.01 0.01 0.02 0.03 0.04 0.03 0.03 0.03 0.01 0.01 0.02 0.01 0.01 0.01 0.01 0.01 0.02 0.03 0.04 0.04 0.04 0.05 0.03 0.03 0.02 0.03 0.05 0.02 0.02 0.03 0.05 0.06 0.07 0.06 0.05 0.06
0.01 0.01 0.01 0.01 0.01 0.01 0.01 0.02 0.01 0.01 0.01 0.01 0.03 0.02 0.01 0.01 0.03 0.04 0.03 0.05 0.05 0.03 0.03 0.01 0.01 0.01 0.01 0.01 0.01 0.01 0.02 0.02 0.03 0.03 0.07 0.03 0.02 0.02 0.04 0.06 0.03 0.03 0.04 0.05 0.05 0.04 0.03 0.04 0.04
0.02 0.01 0.01 0.01 0.02 0.02 0.01 0.01 0.01 0.01 0.01 0.01 0.02 0.02 0.01 0.01 0.02 0.02 0.01 0.02 0.03 0.04 0.03 0.01 0.01 0.01 0.01 0.01 0.00 0.01 0.01 0.02 0.03 0.02 0.02 0.02 0.02 0.03 0.04 0.04 0.04 0.04 0.04 0.05 0.04 0.03 0.02 0.03 0.04
0.02 0.03 0.02 0.02 0.02 0.02 0.02 0.02 0.01 0.01 0.01 0.00 0.00 0.00 0.01 0.01 0.01 0.01 0.01 0.01 0.02 0.04 0.03 0.01 0.01 0.01 0.01 0.01 0.01 0.01 0.01 0.02 0.03 0.02 0.01 0.01 0.02 0.03 0.03 0.04 0.04 0.03 0.02 0.02 0.02 0.02 0.02 0.02 0.03
0.02 0.03 0.02 0.04 0.04 0.04 0.03 0.03 0.02 0.01 0.00 0.00 0.00 0.00 0.00 0.00 0.00 0.01 0.01 0.01 0.02 0.03 0.03 0.02 0.01 0.01 0.01 0.01 0.01 0.01 0.01 0.01 0.02 0.02 0.01 0.01 0.01 0.02 0.02 0.02 0.02 0.03 0.03 0.02 0.02 0.01 0.01 0.01 0.01
0.01 0.02 0.03 0.04 0.06 0.05 0.06 0.06 0.03 0.01 0.01 0.00 0.00 0.00 0.00 0.00 0.00 0.00 0.00 0.01 0.01 0.02 0.02 0.03 0.02 0.01 0.01 0.01 0.01 0.01 0.01 0.02 0.02 0.01 0.01 0.01 0.01 0.01 0.01 0.01 0.02 0.04 0.04 0.03 0.03 0.02 0.01 0.01 0.01
0.02 0.02 0.02 0.02 0.02 0.05 0.04 0.08 0.03 0.01 0.01 0.01 0.01 0.01 0.00 0.00 0.00 0.00 0.01 0.01 0.01 0.01 0.02 0.02 0.02 0.01 0.01 0.01 0.01 0.00 0.00 0.01 0.01 0.01 0.01 0.01 0.02 0.02 0.00 0.01 0.01 0.03 0.02 0.02 0.03 0.02 0.01 0.01 0.01
0.01 0.01 0.01 0.01 0.03 0.04 0.03 0.05 0.03 0.03 0.02 0.01 0.01 0.01 0.01 0.00 0.00 0.01 0.01 0.01 0.01 0.01 0.02 0.03 0.03 0.01 0.01 0.01 0.01 0.01 0.01 0.01 0.01 0.01 0.01 0.01 0.02 0.01 0.00 0.01 0.01 0.02 0.01 0.01 0.02 0.01 0.01 0.01 0.01
0.01 0.01 0.01 0.02 0.03 0.03 0.03 0.03 0.03 0.02 0.01 0.01 0.01 0.01 0.01 0.01 0.01 0.02 0.01 0.01 0.01 0.01 0.02 0.05 0.04 0.02 0.01 0.01 0.01 0.01 0.01 0.02 0.02 0.02 0.01 0.01 0.01 0.01 0.01 0.01 0.02 0.02 0.01 0.01 0.01 0.01 0.01 0.01 0.01
0.01 0.01 0.01 0.02 0.03 0.04 0.03 0.04 0.03 0.01 0.01 0.00 0.01 0.01 0.01 0.01 0.01 0.02 0.02 0.02 0.02 0.02 0.02 0.04 0.07 0.03 0.01 0.01 0.01 0.01 0.01 0.01 0.01 0.01 0.01 0.01 0.01 0.01 0.01 0.01 0.01 0.01 0.01 0.02 0.01 0.01 0.01 0.01 0.01
0.01 0.01 0.01 0.01 0.02 0.04 0.03 0.03 0.02 0.01 0.01 0.00 0.00 0.00 0.00 0.00 0.00 0.01 0.01 0.02 0.01 0.01 0.02 0.04 0.04 0.03 0.02 0.01 0.01 0.01 0.01 0.01 0.02 0.02 0.02 0.01 0.01 0.01 0.00 0.01 0.01 0.01 0.01 0.01 0.02 0.03 0.02 0.02 0.01
0.01 0.01 0.01 0.01 0.01 0.02 0.03 0.03 0.02 0.02 0.01 0.00 0.00 0.00 0.00 0.00 0.00 0.01 0.01 0.02 0.02 0.01 0.01 0.02 0.02 0.03 0.02 0.02 0.02 0.02 0.02 0.03 0.04 0.03 0.02 0.01 0.01 0.00 0.00 0.01 0.01 0.01 0.01 0.01 0.01 0.02 0.02 0.02 0.02
0.01 0.01 0.01 0.01 0.02 0.03 0.04 0.04 0.03 0.03 0.01 0.00 0.00 0.00 0.00 0.00 0.00 0.01 0.02 0.04 0.04 0.01 0.01 0.02 0.02 0.02 0.02 0.01 0.01 0.02 0.02 0.02 0.03 0.02 0.01 0.02 0.01 0.01 0.01 0.01 0.01 0.01 0.02 0.01 0.01 0.01 0.01 0.02 0.02
0.01 0.01 0.01 0.01 0.02 0.03 0.03 0.02 0.01 0.01 0.00 0.00 0.00 0.00 0.00 0.01 0.01 0.01 0.01 0.02 0.02 0.01 0.01 0.02 0.02 0.02 0.02 0.02 0.01 0.01 0.01 0.01 0.02 0.01 0.01 0.02 0.02 0.02 0.01 0.01 0.01 0.01 0.02 0.02 0.01 0.01 0.01 0.01 0.01
0.01 0.01 0.01 0.01 0.01 0.03 0.03 0.02 0.01 0.00 0.00 0.00 0.00 0.00 0.00 0.00 0.01 0.01 0.02 0.03 0.02 0.01 0.02 0.02 0.02 0.02 0.02 0.01 0.01 0.01 0.01 0.02 0.02 0.01 0.01 0.01 0.01 0.01 0.01 0.01 0.01 0.01 0.02 0.02 0.02 0.01 0.02 0.02 0.01
MSLP
1005.23 1006.39 1007.82 1009.32 1010.68 1011.73 1012.37 1012.59 1012.47 1012.15 1011.80 1011.58 1011.56 1011.77 1012.16 1012.61 1013.02 1013.30 1013.39 1013.30 1013.10 1012.85 1012.62 1012.46 1012.39 1012.37 1012.37 1012.33 1012.23 1012.07 1011.86 1011.65 1011.47 1011.36 1011.30 1011.30 1011.30 1011.26 1011.15 1010.95 1010.67 1010.35 1010.02 1009.72 1009.49 1009.35 1009.30 1009.33 1009.43
1005.73 1007.10 1008.66 1010.19 1011.49 1012.40 1012.84 1012.82 1012.46 1011.92 1011.40 1011.05 1010.96 1011.13 1011.52 1012.00 1012.45 1012.78 1012.92 1012.90 1012.75 1012.56 1012.40 1012.32 1012.32 1012.39 1012.47 1012.51 1012.47 1012.36 1012.18 1011.98 1011.80 1011.67 1011.61 1011.61 1011.63 1011.64 1011.59 1011.46 1011.26 1011.00 1010.72 1010.46 1010.23 1010.07 1009.97 1009.95 1009.98
1006.47 1007.97 1009.57 1011.05 1012.22 1012.94 1013.16 1012.93 1012.38 1011.69 1011.06 1010.64 1010.52 1010.69 1011.08 1011.58 1012.05 1012.40 1012.56 1012.57 1012.45 1012.30 1012.19 1012.15 1012.22 1012.36 1012.52 1012.63 1012.67 1012.62 1012.48 1012.31 1012.13 1011.99 1011.92 1011.90 1011.91 1011.93 1011.91 1011.84 1011.72 1011.54 1011.34 1011.14 1010.97 1010.82 1010.73 1010.68 1010.68
1007.38 1008.92 1010.47 1011.81 1012.79 1013.31 1013.33 1012.93 1012.26 1011.50 1010.85 1010.43 1010.32 1010.51 1010.91 1011.41 1011.87 1012.21 1012.37 1012.37 1012.26 1012.13 1012.04 1012.04 1012.15 1012.33 1012.55 1012.72 1012.83 1012.83 1012.75 1012.61 1012.45 1012.31 1012.21 1012.17 1012.15 1012.16 1012.15 1012.12 1012.05 1011.95 1011.84 1011.73 1011.63 1011.55 1011.49 1011.46 1011.45
1008.35 1009.83 1011.23 1012.38 1013.15 1013.46 1013.32 1012.83 1012.13 1011.39 1010.79 1010.44 1010.39 1010.60 1011.01 1011.48 1011.91 1012.21 1012.34 1012.32 1012.21 1012.08 1012.01 1012.02 1012.15 1012.35 1012.58 1012.79 1012.94 1013.00 1012.96 1012.87 1012.74 1012.61 1012.51 1012.44 1012.40 1012.37 1012.35 1012.32 1012.29 1012.25 1012.22 1012.19 1012.17 1012.16 1012.16 1012.16 1012.18
1009.21 1010.55 1011.74 1012.65 1013.20 1013.34 1013.12 1012.61 1011.97 1011.35 1010.87 1010.64 1010.66 1010.91 1011.31 1011.74 1012.12 1012.36 1012.45 1012.42 1012.30 1012.18 1012.11 1012.13 1012.25 1012.43 1012.65 1012.86 1013.01 1013.10 1013.10 1013.06 1012.97 1012.88 1012.79 1012.72 1012.66 1012.61 1012.56 1012.51 1012.48 1012.46 1012.47 1012.50 1012.54 1012.60 1012.65 1012.70 1012.74
1009.85 1010.97 1011.91 1012.58 1012.92 1012.95 1012.70 1012.27 1011.77 1011.33 1011.04 1010.95 1011.07 1011.35 1011.72 1012.10 1012.40 1012.58 1012.64 1012.59 1012.49 1012.39 1012.33 1012.35 1012.44 1012.59 1012.77 1012.93 1013.05 1013.13 1013.16 1013.16 1013.13 1013.09 1013.05 1013.00 1012.94 1012.87 1012.79 1012.71 1012.65 1012.62 1012.62 1012.67 1012.75 1012.84 1012.94 1013.02 1013.09
1010.17 1011.04 1011.71 1012.15 1012.33 1012.30 1012.10 1011.81 1011.52 1011.31 1011.23 1011.30 1011.51 1011.81 1012.14 1012.44 1012.66 1012.78 1012.81 1012.77 1012.70 1012.64 1012.62 1012.64 1012.71 1012.80 1012.90 1012.99 1013.05 1013.10 1013.13 1013.16 1013.19 1013.22 1013.24 1013.24 1013.21 1013.14 1013.04 1012.93 1012.83 1012.76 1012.74 1012.77 1012.84 1012.95 1013.06 1013.16 1013.26
1010.16 1010.79 1011.21 1011.44 1011.51 1011.47 1011.37 1011.27 1011.22 1011.26 1011.40 1011.62 1011.90 1012.20 1012.48 1012.69 1012.83 1012.90 1012.92 1012.90 1012.89 1012.89 1012.91 1012.95 1013.00 1013.03 1013.04 1013.03 1013.01 1013.00 1013.02 1013.06 1013.15 1013.25 1013.35 1013.42 1013.44 1013.40 1013.30 1013.16 1013.02 1012.91 1012.85 1012.85 1012.90 1012.99 1013.10 1013.21 1013.32
1009.93 1010.32 1010.52 1010.59 1010.59 1010.58 1010.61 1010.71 1010.90 1011.18 1011.51 1011.86 1012.20 1012.48 1012.69 1012.82 1012.88 1012.91 1012.92 1012.94 1012.99 1013.06 1013.15 1013.21 1013.25 1013.23 1013.16 1013.05 1012.94 1012.86 1012.84 1012.89 1013.01 1013.18 1013.36 1013.50 1013.59 1013.60 1013.52 1013.39 1013.24 1013.10 1013.00 1012.97 1012.99 1013.06 1013.16 1013.27 1013.38
1009.62 1009.80 1009.83 1009.79 1009.75 1009.79 1009.94 1010.23 1010.63 1011.10 1011.59 1012.03 1012.39 1012.64 1012.78 1012.83 1012.82 1012.81 1012.82 1012.88 1013.00 1013.14 1013.29 1013.39 1013.42 1013.36 1013.23 1013.05 1012.86 1012.71 1012.64 1012.68 1012.81 1013.02 1013.27 1013.48 1013.65 1013.72 1013.70 1013.60 1013.46 1013.32 1013.22 1013.16 1013.17 1013.23 1013.32 1013.43 1013.54
1009.41 1009.44 1009.33 1009.20 1009.14 1009.22 1009.48 1009.91 1010.46 1011.06 1011.64 1012.14 1012.50 1012.70 1012.78 1012.75 1012.69 1012.65 1012.67 1012.76 1012.93 1013.13 1013.32 1013.46 1013.50 1013.43 1013.26 1013.03 1012.78 1012.58 1012.46 1012.48 1012.61 1012.84 1013.11 1013.38 1013.61 1013.75 1013.79 1013.76 1013.67 1013.57 1013.49 1013.45 1013.46 1013.52 1013.61 1013.72 1013.83
1009.47 1009.38 1009.18 1008.98 1008.89 1009.00 1009.31 1009.80 1010.43 1011.10 1011.72 1012.22 1012.55 1012.72 1012.74 1012.67 1012.57 1012.51 1012.52 1012.63 1012.82 1013.05 1013.27 1013.44 1013.50 1013.43 1013.26 1013.01 1012.74 1012.51 1012.37 1012.35 1012.46 1012.67 1012.95 1013.24 1013.50 1013.70 1013.81 1013.86 1013.84 1013.81 1013.78 1013.78 1013.83 1013.91 1014.01 1014.13 1014.24
1009.88 1009.71 1009.44 1009.19 1009.07 1009.16 1009.47 1009.96 1010.58 1011.23 1011.83 1012.29 1012.59 1012.72 1012.72 1012.63 1012.51 1012.44 1012.44 1012.54 1012.72 1012.95 1013.18 1013.35 1013.43 1013.39 1013.25 1013.03 1012.79 1012.57 1012.41 1012.36 1012.43 1012.59 1012.83 1013.10 1013.37 1013.59 1013.77 1013.89 1013.96 1014.01 1014.06 1014.13 1014.22 1014.33 1014.46 1014.59 1014.71
1010.60 1010.38 1010.07 1009.78 1009.63 1009.68 1009.93 1010.36 1010.89 1011.46 1011.97 1012.37 1012.63 1012.74 1012.73 1012.65 1012.55 1012.48 1012.47 1012.55 1012.69 1012.88 1013.08 1013.24 1013.33 1013.33 1013.25 1013.11 1012.92 1012.75 1012.60 1012.53 1012.55 1012.64 1012.81 1013.02 1013.25 1013.48 1013.68 1013.86 1014.02 1014.15 1014.28 1014.42 1014.56 1014.72 1014.87 1015.02 1015.15
1011.49 1011.25 1010.93 1010.63 1010.46 1010.45 1010.61 1010.93 1011.33 1011.76 1012.15 1012.45 1012.66 1012.75 1012.77 1012.73 1012.67 1012.62 1012.61 1012.66 1012.74 1012.87 1013.00 1013.13 1013.22 1013.27 1013.27 1013.23 1013.14 1013.04 1012.94 1012.86 1012.82 1012.84 1012.91 1013.03 1013.19 1013.38 1013.59 1013.81 1014.02 1014.23 1014.43 1014.63 1014.82 1015.01 1015.19 1015.35 1015.49
1012.33 1012.12 1011.84 1011.58 1011.41 1011.36 1011.44 1011.61 1011.84 1012.09 1012.31 1012.50 1012.64 1012.73 1012.78 1012.81 1012.82 1012.82 1012.83 1012.84 1012.86 1012.90 1012.96 1013.04 1013.13 1013.22 1013.31 1013.38 1013.41 1013.40 1013.36 1013.30 1013.22 1013.15 1013.12 1013.13 1013.20 1013.34 1013.52 1013.75 1014.00 1014.26 1014.51 1014.75 1014.97 1015.18 1015.37 1015.55 1015.71
1012.91 1012.79 1012.62 1012.46 1012.36 1012.31 1012.32 1012.35 1012.38 1012.42 1012.46 1012.49 1012.55 1012.63 1012.73 1012.83 1012.93 1013.01 1013.05 1013.05 1013.02 1012.98 1012.95 1012.97 1013.05 1013.18 1013.34 1013.52 1013.68 1013.79 1013.82 1013.78 1013.68 1013.54 1013.41 1013.32 1013.30 1013.36 1013.51 1013.73 1013.99 1014.27 1014.55 1014.81 1015.05 1015.26 1015.46 1015.64 1015.81
1013.09 1013.12 1013.15 1013.18 1013.22 1013.23 1013.20 1013.10 1012.94 1012.75 1012.56 1012.42 1012.37 1012.41 1012.54 1012.74 1012.94 1013.11 1013.21 1013.22 1013.16 1013.06 1012.96 1012.92 1012.97 1013.12 1013.35 1013.63 1013.91 1014.12 1014.24 1014.24 1014.14 1013.96 1013.75 1013.57 1013.47 1013.47 1013.58 1013.77 1014.04 1014.33 1014.61 1014.87 1015.10 1015.30 1015.48 1015.67 1015.85
1012.82 1013.09 1013.40 1013.71 1013.96 1014.10 1014.07 1013.87 1013.52 1013.08 1012.64 1012.28 1012.08 1012.06 1012.20 1012.48 1012.79 1013.08 1013.26 1013.32 1013.26 1013.12 1012.97 1012.87 1012.89 1013.04 1013.32 1013.68 1014.05 1014.37 1014.57 1014.62 1014.53 1014.33 1014.09 1013.86 1013.70 1013.65 1013.73 1013.91 1014.16 1014.45 1014.73 1014.97 1015.18 1015.35 1015.51 1015.69 1015.88
1012.18 1012.77 1013.44 1014.09 1014.63 1014.94 1014.96 1014.66 1014.12 1013.41 1012.69 1012.08 1011.69 1011.57 1011.70 1012.03 1012.46 1012.86 1013.17 1013.31 1013.28 1013.14 1012.96 1012.83 1012.81 1012.96 1013.25 1013.66 1014.09 1014.49 1014.76 1014.87 1014.81 1014.63 1014.38 1014.13 1013.95 1013.89 1013.95 1014.13 1014.38 1014.65 1014.92 1015.14 1015.31 1015.45 1015.59 1015.74 1015.94
1011.37 1012.32 1013.39 1014.44 1015.29 1015.79 1015.86 1015.49 1014.74 1013.76 1012.74 1011.85 1011.24 1010.98 1011.06 1011.43 1011.95 1012.49 1012.92 1013.17 1013.23 1013.13 1012.95 1012.79 1012.75 1012.87 1013.16 1013.57 1014.05 1014.49 1014.82 1014.98 1014.97 1014.82 1014.59 1014.36 1014.19 1014.13 1014.20 1014.39 1014.64 1014.91 1015.16 1015.36 1015.50 1015.60 1015.70 1015.83 1016.01
1010.61 1011.93 1013.41 1014.83 1015.97 1016.66 1016.77 1016.30 1015.35 1014.09 1012.76 1011.58 1010.73 1010.31 1010.33 1010.71 1011.32 1011.98 1012.56 1012.94 1013.10 1013.07 1012.92 1012.76 1012.69 1012.79 1013.05 1013.46 1013.93 1014.39 1014.75 1014.96 1015.00 1014.89 1014.71 1014.51 1014.38 1014.35 1014.44 1014.64 1014.90 1015.17 1015.40 1015.57 1015.68 1015.74 1015.80 1015.90 1016.06
1010.08 1011.74 1013.57 1015.31 1016.68 1017.49 1017.60 1017.03 1015.87 1014.34 1012.72 1011.26 1010.18 1009.61 1009.55 1009.93 1010.61 1011.40 1012.11 1012.64 1012.92 1012.97 1012.88 1012.74 1012.66 1012.72 1012.95 1013.32 1013.78 1014.23 1014.61 1014.84 1014.92 1014.86 1014.72 1014.57 1014.47 1014.48 1014.60 1014.81 1015.08 1015.35 1015.57 1015.71 1015.79 1015.82 1015.84 1015.90 1016.03
1009.86 1011.79 1013.87 1015.81 1017.32 1018.17 1018.24 1017.54 1016.19 1014.42 1012.55 1010.86 1009.60 1008.89 1008.77 1009.15 1009.89 1010.78 1011.62 1012.28 1012.68 1012.84 1012.80 1012.69 1012.61 1012.65 1012.84 1013.18 1013.60 1014.03 1014.41 1014.65 1014.75 1014.73 1014.63 1014.52 1014.46 1014.49 1014.63 1014.86 1015.12 1015.38 1015.59 1015.72 1015.77 1015.76 1015.75 1015.77 1015.87
1009.94 1012.01 1014.21 1016.21 1017.74 1018.55 1018.54 1017.69 1016.18 1014.24 1012.20 1010.36 1008.97 1008.18 1008.02 1008.41 1009.20 1010.17 1011.11 1011.88 1012.38 1012.63 1012.67 1012.60 1012.53 1012.56 1012.72 1013.02 1013.40 1013.81 1014.17 1014.41 1014.53 1014.53 1014.46 1014.37 1014.34 1014.38 1014.52 1014.75 1015.01 1015.26 1015.45 1015.56 1015.59 1015.56 1015.52 1015.51 1015.57
1010.19 1012.27 1014.43 1016.37 1017.80 1018.49 1018.35 1017.39 1015.76 1013.73 1011.62 1009.73 1008.31 1007.51 1007.35 1007.76 1008.57 1009.59 1010.59 1011.43 1012.01 1012.33 1012.43 1012.40 1012.36 1012.40 1012.55 1012.82 1013.18 1013.56 1013.90 1014.14 1014.26 1014.27 1014.22 1014.15 1014.12 1014.16 1014.29 1014.50 1014.75 1014.98 1015.15 1015.25 1015.27 1015.23 1015.16 1015.13 1015.15
1010.45 1012.40 1014.40 1016.14 1017.37 1017.89 1017.61 1016.56 1014.91 1012.89 1010.83 1009.00 1007.65 1006.91 1006.79 1007.22 1008.05 1009.07 1010.08 1010.94 1011.56 1011.91 1012.06 1012.08 1012.07 1012.13 1012.28 1012.56 1012.90 1013.27 1013.60 1013.84 1013.97 1013.99 1013.94 1013.87 1013.84 1013.87 1013.98 1014.17 1014.39 1014.60 1014.76 1014.85 1014.86 1014.82 1014.74 1014.69 1014.69
1010.57 1012.28 1013.99 1015.45 1016.41 1016.73 1016.33 1015.26 1013.66 1011.78 1009.88 1008.24 1007.05 1006.42 1006.37 1006.83 1007.64 1008.62 1009.59 1010.41 1011.01 1011.37 1011.54 1011.60 1011.63 1011.72 1011.91 1012.20 1012.56 1012.94 1013.27 1013.52 1013.65 1013.68 1013.63 1013.57 1013.53 1013.55 1013.64 1013.80 1014.00 1014.19 1014.35 1014.44 1014.45 1014.40 1014.32 1014.26 1014.23
1010.48 1011.88 1013.24 1014.36 1015.04 1015.16 1014.68 1013.64 1012.20 1010.54 1008.91 1007.53 1006.57 1006.11 1006.15 1006.62 1007.38 1008.28 1009.15 1009.88 1010.41 1010.74 1010.91 1010.99 1011.06 1011.20 1011.44 1011.77 1012.15 1012.55 1012.90 1013.16 1013.30 1013.34 1013.32 1013.26 1013.22 1013.23 1013.31 1013.46 1013.64 1013.83 1013.98 1014.06 1014.08 1014.04 1013.96 1013.88 1013.83
Thickness
5818 5816 5813 5800 5779 5761 5759 5773 5784 5785 5786 5793 5796 5790 5779 5771 5763 5754 5774 5783 5784 5783 5783 5783 5784 5784 5784 5784 5785 5785 5784 5784 5783 5783 5783 5783 5782 5781 5780 5779 5779 5778 5777 5776 5775 5775 5774 5773 5772
5822 5819 5807 5790 5765 5748 5758 5779 5783 5788 5793 5798 5796 5789 5780 5773 5777 5775 5777 5782 5783 5783 5783 5783 5783 5783 5783 5783 5784 5783 5783 5783 5783 5782 5782 5782 5781 5780 5779 5778 5778 5777 5776 5775 5774 5774 5773 5772 5770
5825 5820 5797 5778 5762 5755 5764 5783 5789 5797 5802 5800 5791 5788 5779 5773 5777 5777 5781 5783 5782 5782 5782 5783 5783 5783 5783 5782 5783 5783 5783 5782 5782 5782 5782 5781 5780 5778 5778 5777 5777 5776 5775 5774 5773 5772 5772 5770 5769
5823 5807 5793 5772 5765 5778 5784 5791 5798 5796 5797 5798 5791 5779 5780 5786 5784 5783 5784 5784 5782 5782 5783 5783 5783 5783 5782 5782 5782 5782 5782 5782 5782 5781 5781 5780 5779 5778 5777 5776 5776 5775 5774 5773 5773 5772 5771 5769 5768
5821 5798 5776 5766 5774 5789 5799 5804 5804 5795 5791 5791 5789 5774 5773 5785 5790 5787 5785 5784 5782 5782 5784 5784 5784 5784 5783 5782 5782 5782 5781 5781 5781 5781 5780 5779 5778 5777 5776 5775 5775 5774 5773 5772 5772 5771 5770 5769 5768
5807 5792 5767 5762 5777 5793 5802 5808 5804 5794 5789 5790 5786 5775 5772 5785 5786 5786 5786 5784 5783 5783 5784 5784 5784 5784 5783 5783 5782 5781 5782 5781 5781 5780 5779 5778 5777 5776 5775 5775 5774 5773 5773 5772 5771 5770 5769 5768 5767
5801 5786 5772 5775 5779 5788 5800 5810 5803 5794 5789 5790 5791 5775 5773 5781 5786 5787 5786 5784 5783 5783 5783 5783 5783 5783 5783 5783 5782 5782 5781 5781 5780 5779 5778 5778 5776 5776 5775 5774 5774 5773 5772 5771 5770 5770 5769 5768 5767
5816 5793 5780 5781 5782 5786 5805 5810 5808 5800 5793 5801 5797 5777 5772 5782 5789 5787 5785 5783 5782 5782 5782 5782 5782 5782 5782 5782 5782 5782 5781 5781 5780 5779 5778 5777 5776 5776 5775 5775 5774 5773 5772 5771 5770 5769 5767 5767 5766
5824 5788 5776 5785 5787 5792 5809 5806 5807 5811 5802 5800 5799 5792 5790 5793 5790 5785 5781 5779 5779 5779 5780 5781 5781 5781 5781 5781 5781 5781 5781 5780 5779 5778 5778 5776 5775 5775 5775 5775 5773 5772 5772 5771 5769 5768 5767 5766 5765
5813 5786 5792 5808 5809 5805 5811 5809 5807 5800 5793 5790 5792 5794 5796 5793 5788 5782 5779 5776 5776 5777 5779 5780 5781 5781 5781 5782 5781 5780 5780 5779 5779 5778 5777 5776 5775 5774 5773 5773 5772 5772 5771 5770 5769 5767 5766 5765 5764
5817 5804 5813 5821 5824 5820 5813 5811 5812 5797 5785 5789 5789 5791 5793 5791 5788 5784 5782 5781 5780 5781 5781 5782 5782 5782 5782 5781 5781 5780 5779 5779 5778 5777 5777 5775 5774 5773 5772 5771 5771 5770 5769 5768 5767 5766 5765 5765 5764
5822 5823 5827 5825 5830 5824 5817 5813 5807 5802 5797 5805 5803 5800 5796 5791 5788 5787 5785 5784 5784 5783 5783 5784 5784 5783 5783 5782 5781 5780 5779 5778 5778 5777 5777 5775 5774 5773 5771 5770 5769 5769 5768 5767 5765 5765 5764 5763 5763
5824 5825 5833 5833 5831 5828 5823 5814 5808 5803 5810 5810 5807 5802 5796 5793 5791 5792 5791 5790 5788 5785 5785 5785 5786 5785 5784 5783 5782 5780 5779 5779 5778 5777 5776 5775 5774 5772 5771 5770 5770 5768 5767 5766 5765 5764 5763 5763 5763
5829 5829 5831 5832 5829 5829 5819 5814 5810 5804 5812 5808 5804 5799 5798 5795 5794 5792 5791 5789 5788 5788 5787 5787 5787 5787 5786 5784 5782 5781 5780 5780 5779 5778 5777 5776 5774 5772 5771 5770 5769 5768 5767 5767 5766 5764 5763 5762 5762
5837 5823 5821 5825 5827 5824 5819 5801 5805 5812 5812 5805 5803 5801 5798 5798 5797 5794 5794 5792 5791 5790 5790 5789 5788 5788 5787 5785 5784 5783 5782 5781 5779 5778 5777 5775 5774 5773 5772 5771 5770 5769 5768 5767 5766 5765 5764 5763 5762
5825 5810 5798 5816 5824 5823 5809 5783 5805 5815 5811 5803 5803 5802 5799 5798 5799 5799 5798 5796 5794 5792 5791 5791 5791 5788 5787 5786 5785 5783 5782 5781 5779 5778 5777 5775 5775 5774 5773 5771 5771 5770 5769 5768 5766 5765 5763 5761 5761
5800 5788 5792 5808 5823 5821 5808 5792 5808 5816 5812 5804 5803 5802 5799 5797 5799 5800 5800 5798 5796 5795 5793 5791 5791 5788 5787 5786 5785 5783 5781 5780 5779 5778 5777 5776 5776 5775 5773 5772 5772 5771 5770 5768 5767 5764 5763 5761 5760
5788 5790 5794 5799 5818 5818 5806 5801 5810 5816 5814 5808 5806 5804 5801 5799 5800 5803 5803 5801 5799 5797 5795 5793 5791 5789 5788 5786 5784 5782 5781 5780 5779 5778 5778 5777 5776 5775 5774 5773 5772 5771 5769 5767 5766 5764 5763 5762 5760
5810 5801 5795 5806 5825 5815 5806 5804 5810 5815 5813 5809 5806 5804 5803 5803 5806 5807 5806 5804 5801 5798 5795 5793 5791 5789 5788 5785 5781 5779 5777 5778 5778 5778 5778 5777 5777 5776 5775 5773 5772 5771 5769 5767 5766 5764 5762 5760 5760
5812 5801 5798 5808 5824 5816 5806 5805 5813 5817 5816 5816 5812 5808 5807 5805 5805 5805 5806 5805 5802 5799 5797 5794 5792 5791 5789 5787 5785 5783 5780 5779 5779 5779 5778 5778 5777 5776 5775 5773 5772 5771 5769 5767 5766 5764 5761 5759 5760
5808 5803 5804 5804 5814 5816 5805 5794 5802 5813 5819 5819 5819 5816 5815 5811 5807 5806 5806 5805 5804 5802 5800 5798 5795 5793 5791 5789 5787 5784 5781 5779 5777 5777 5777 5778 5777 5776 5775 5774 5773 5771 5770 5767 5766 5765 5762 5757 5758
5802 5821 5820 5813 5799 5786 5797 5769 5790 5803 5809 5814 5815 5815 5815 5816 5813 5809 5808 5807 5806 5806 5805 5801 5798 5795 5793 5791 5787 5783 5778 5775 5776 5777 5777 5778 5777 5776 5776 5775 5773 5772 5770 5769 5768 5766 5764 5760 5755
5818 5832 5824 5816 5800 5786 5790 5773 5783 5801 5799 5808 5816 5819 5819 5819 5816 5813 5812 5811 5811 5810 5806 5803 5800 5797 5795 5792 5789 5785 5781 5779 5779 5778 5777 5777 5777 5777 5776 5775 5774 5772 5771 5770 5768 5766 5764 5761 5757
5834 5823 5813 5801 5785 5765 5782 5775 5776 5796 5806 5814 5819 5822 5822 5822 5821 5819 5817 5814 5812 5811 5808 5804 5800 5798 5796 5793 5791 5787 5783 5780 5778 5777 5775 5775 5775 5776 5776 5776 5774 5773 5772 5770 5769 5767 5764 5761 5759
5823 5790 5764 5759 5751 5758 5784 5780 5785 5817 5828 5828 5826 5826 5827 5826 5823 5820 5817 5814 5812 5810 5808 5806 5801 5798 5797 5795 5792 5789 5786 5783 5780 5778 5776 5775 5774 5774 5775 5776 5774 5773 5772 5770 5769 5766 5764 5762 5759
5813 5794 5764 5749 5745 5757 5779 5777 5801 5831 5838 5839 5837 5834 5831 5827 5825 5823 5821 5818 5816 5814 5811 5807 5803 5800 5798 5795 5793 5791 5788 5786 5783 5781 5779 5777 5776 5776 5776 5775 5774 5773 5772 5770 5768 5765 5763 5761 5758
5811 5798 5797 5771 5765 5756 5767 5787 5811 5831 5831 5834 5833 5831 5829 5828 5828 5826 5824 5822 5819 5816 5813 5810 5805 5802 5799 5796 5794 5791 5789 5787 5785 5783 5781 5779 5778 5778 5777 5775 5773 5772 5771 5769 5767 5764 5762 5760 5758
5824 5811 5784 5767 5750 5743 5760 5773 5784 5808 5816 5824 5827 5828 5829 5829 5828 5827 5826 5824 5821 5819 5816 5812 5808 5804 5801 5798 5795 5792 5789 5788 5786 5784 5781 5779 5778 5777 5776 5774 5772 5771 5769 5768 5765 5763 5761 5758 5756
5810 5802 5784 5766 5762 5746 5743 5766 5815 5816 5821 5823 5826 5830 5830 5829 5828 5827 5827 5826 5823 5820 5816 5812 5808 5805 5801 5798 5796 5793 5790 5788 5786 5783 5781 5780 5778 5776 5774 5772 5771 5769 5767 5766 5763 5760 5759 5756 5754
5815 5803 5785 5765 5761 5758 5752 5772 5830 5828 5829 5827 5827 5830 5832 5832 5831 5829 5827 5824 5820 5817 5815 5812 5809 5806 5803 5800 5796 5793 5790 5787 5784 5782 5781 5779 5777 5775 5773 5771 5769 5767 5766 5763 5761 5758 5756 5753 5751